Project,Study,Ord_Occ,Event_Num,Cast_ID,Date_Time_UTC,Date_Time_PST,Lat_Dec,Lon_Dec,Sta_ID,Line,Sta,Depth,Pressure,PrQ,Temp1,Temp1Q,Temp2,Temp2Q,TempAve,Salt1,Salt1Q,Salt1_Corr,Salt2,Salt2Q,Salt2_Corr,SaltAve_Corr,Ox1,Ox1Q,Ox1_CruiseCorr,Ox1_StaCorr,Ox2,Ox2Q,Ox2_CruiseCorr,Ox2_StaCorr,OxAve_StaCorr,Ox1uM,Ox1uM_CruiseCorr,Ox1uM_StaCorr,Ox2uM,Ox2uM_CruiseCorr,Ox2uM_StaCorr,OxAveuM_StaCorr,FluorV,FluorQ,EstChl_CruiseCorr,EstChl_StaCorr,ISUSV,ISUSQ,EstNO3_CruiseCorr,EstNO3_StaCorr,SigThetaTS1,SigThetaTS1Q,SigThetaTS2,SigThetaTS2Q,BAT,XMiss,TransQ,pH,pHQ,SPAR,SPARQ,PAR,PARQ,PoT1,PoT2,DynHt,SVA,OxSat1,OxSat2,BTL_Depth,BTL_Temp,SaltB,OxB,OxBuM,Chl-a,Phaeo,NO3,NO2,NH4,PO4,SIL
CalCOFI,2101RL,005,,2101_005d,16-Jan-2021 19:31:41,16-Jan-2021 11:31:41,32.84741,-117.52721,093.3 030.0,093.3,030.0,3.000,3.021,,15.6239,,15.6246,,15.6243,33.5792,,33.5850,33.5705,,33.5725,33.5788,5.5508,,5.8094,5.7138,5.4480,,5.7843,5.6576,5.6857,241.912,253.4937,249.2566,237.435,269.4623,246.8081,248.0324,,,,, ,, , ,24.7395,,24.7326,,0.8282,81.2980,,,,2.0241E+03,,4.6651E+01,,15.6234,15.6241,0.0039,319.666,97.865,96.049,3,,33.5863,5.787,252.42,-99.000,-99.000,,,,,
CalCOFI,2101RL,005,,2101_005d,16-Jan-2021 19:31:47,16-Jan-2021 11:31:47,32.84741,-117.52720,093.3 030.0,093.3,030.0,4.000,4.028,,15.5517,,15.5520,,15.5519,33.5785,,33.5843,33.5701,,33.5721,33.5782,5.5536,,5.8123,5.7167,5.4820,,5.8204,5.6929,5.7048,242.033,253.6203,249.3805,238.914,269.5969,248.3478,248.8642,,,,, ,, , ,24.7551,,24.7485,,0.8353,81.1529,,,,2.0238E+03,,3.7671E+01,,15.5511,15.5513,0.0085,318.215,97.776,96.510,,,,,,,,,,,,
CalCOFI,2101RL,005,,2101_005d,16-Jan-2021 19:31:50,16-Jan-2021 11:31:50,32.84742,-117.52720,093.3 030.0,093.3,030.0,5.000,5.035,,15.5305,,15.5312,,15.5309,33.5786,,33.5844,33.5701,,33.5721,33.5783,5.5590,,5.8179,5.7222,5.5020,,5.8417,5.7138,5.7180,242.267,253.8653,249.6202,239.784,269.8571,249.2535,249.4369,,,,, ,, , ,24.7598,,24.7532,,0.8434,80.9899,,,,2.0245E+03,,3.4336E+01,,15.5298,15.5305,0.0117,317.793,97.830,96.823,,,,,,,,,,,,
CalCOFI,2101RL,005,,2101_005d,16-Jan-2021 19:31:52,16-Jan-2021 11:31:52,32.84740,-117.52722,093.3 030.0,093.3,030.0,6.000,6.043,,15.5198,,15.5203,,15.5201,33.5790,,33.5848,33.5705,,33.5725,33.5787,5.5556,,5.8144,5.7187,5.5037,,5.8435,5.7155,5.7171,242.119,253.7104,249.4686,239.855,269.6925,249.3275,249.3981,,,,, ,, , ,24.7626,,24.7560,,0.8456,80.9451,,,,2.0238E+03,,3.1510E+01,,15.5189,15.5194,0.0149,317.562,97.750,96.831,,,,,,,,,,,,
CalCOFI,2101RL,005,,2101_005d,16-Jan-2021 19:31:54,16-Jan-2021 11:31:54,32.84741,-117.52722,093.3 030.0,093.3,030.0,7.000,7.050,,15.5132,,15.5139,,15.5136,33.5793,,33.5851,33.5708,,33.5728,33.5790,5.5621,,5.8212,5.7254,5.4940,,5.8332,5.7054,5.7154,242.400,254.0045,249.7565,239.436,270.0050,248.8913,249.3239,,,,, ,, , ,24.7643,,24.7576,,0.8452,80.9525,,,,2.0247E+03,,2.6429E+01,,15.5121,15.5129,0.0181,317.428,97.851,96.650,,,,,,,,,,,,
CalCOFI,2101RL,005,,2101_005d,16-Jan-2021 19:31:56,16-Jan-2021 11:31:56,32.84742,-117.52722,093.3 030.0,093.3,030.0,8.000,8.057,,15.5089,,15.5096,,15.5093,33.5796,,33.5854,33.5710,,33.5730,33.5792,5.5668,,5.8261,5.7302,5.4932,,5.8323,5.7046,5.7174,242.605,254.2191,249.9665,239.399,270.2330,248.8527,249.4096,,,,, ,, , ,24.7655,,24.7588,,0.8464,80.9278,,,,2.0247E+03,,2.4363E+01,,15.5077,15.5083,0.0213,317.344,97.926,96.627,,,,,,,,,,,,
CalCOFI,2101RL,005,,2101_005d,16-Jan-2021 19:31:58,16-Jan-2021 11:31:58,32.84742,-117.52722,093.3 030.0,093.3,030.0,9.000,9.064,,15.5055,,15.5060,,15.5058,33.5798,,33.5856,33.5712,,33.5732,33.5794,5.5637,,5.8229,5.7270,5.5048,,5.8446,5.7167,5.7219,242.471,254.0788,249.8292,239.903,270.0840,249.3774,249.6033,,,,, ,, , ,24.7664,,24.7598,,0.8428,81.0026,,,,2.0243E+03,,2.0539E+01,,15.5041,15.5047,0.0245,317.288,97.865,96.824,,,,,,,,,,,,
CalCOFI,2101RL,005,,2101_005d,16-Jan-2021 19:32:00,16-Jan-2021 11:32:00,32.84741,-117.52723,093.3 030.0,093.3,030.0,10.000,10.071,,15.4995,,15.4999,,15.4997,33.5800,,33.5858,33.5714,,33.5734,33.5796,5.5654,,5.8246,5.7288,5.4992,,5.8387,5.7108,5.7198,242.546,254.1574,249.9060,239.658,270.1674,249.1224,249.5142,,,,, ,, , ,24.7680,,24.7613,,0.8446,80.9664,,,,2.0213E+03,,1.7754E+01,,15.4980,15.4984,0.0277,317.173,97.884,96.714,10,,33.5828,5.795,252.74,0.556,0.180,,,,,
CalCOFI,2101RL,005,,2101_005d,16-Jan-2021 19:32:02,16-Jan-2021 11:32:02,32.84740,-117.52724,093.3 030.0,093.3,030.0,11.000,11.078,,15.4982,,15.4982,,15.4982,33.5800,,33.5858,33.5715,,33.5735,33.5797,5.5557,,5.8145,5.7188,5.5038,,5.8436,5.7156,5.7172,242.123,253.7146,249.4727,239.860,269.6970,249.3327,249.4027,,,,, ,, , ,24.7683,,24.7618,,0.8457,80.9439,,,,2.0230E+03,,1.5736E+01,,15.4965,15.4966,0.0309,317.173,97.710,96.792,,,,,,,,,,,,
CalCOFI,2101RL,005,,2101_005d,16-Jan-2021 19:32:04,16-Jan-2021 11:32:04,32.84741,-117.52724,093.3 030.0,093.3,030.0,12.000,12.085,,15.4960,,15.4964,,15.4962,33.5800,,33.5858,33.5715,,33.5735,33.5797,5.5589,,5.8178,5.7221,5.4936,,5.8328,5.7050,5.7136,242.258,253.8559,249.6110,239.415,269.8471,248.8694,249.2402,,,,, ,, , ,24.7689,,24.7622,,0.8489,80.8773,,,,2.0254E+03,,1.4644E+01,,15.4942,15.4945,0.0341,317.151,97.761,96.609,,,,,,,,,,,,
CalCOFI,2101RL,005,,2101_005d,16-Jan-2021 19:32:05,16-Jan-2021 11:32:05,32.84742,-117.52724,093.3 030.0,093.3,030.0,13.000,13.093,,15.4935,,15.4942,,15.4939,33.5800,,33.5858,33.5715,,33.5735,33.5797,5.5626,,5.8217,5.7259,5.5036,,5.8434,5.7154,5.7207,242.419,254.0244,249.7759,239.851,270.0261,249.3233,249.5496,,,,, ,, , ,24.7695,,24.7627,,0.8458,80.9399,,,,2.0266E+03,,1.2913E+01,,15.4915,15.4922,0.0373,317.128,97.821,96.781,,,,,,,,,,,,
CalCOFI,2101RL,005,,2101_005d,16-Jan-2021 19:32:07,16-Jan-2021 11:32:07,32.84741,-117.52723,093.3 030.0,093.3,030.0,14.000,14.100,,15.4905,,15.4911,,15.4908,33.5801,,33.5859,33.5716,,33.5736,33.5798,5.5578,,5.8167,5.7210,5.5161,,5.8566,5.7284,5.7247,242.212,253.8077,249.5639,240.395,269.7959,249.8896,249.7268,,,,, ,, , ,24.7702,,24.7635,,0.8448,80.9622,,,,2.0249E+03,,1.1389E+01,,15.4883,15.4889,0.0405,317.089,97.732,96.994,,,,,,,,,,,,
CalCOFI,2101RL,005,,2101_005d,16-Jan-2021 19:32:09,16-Jan-2021 11:32:09,32.84740,-117.52722,093.3 030.0,093.3,030.0,15.000,15.107,,15.4892,,15.4898,,15.4895,33.5801,,33.5859,33.5716,,33.5736,33.5798,5.5577,,5.8166,5.7209,5.5126,,5.8529,5.7248,5.7229,242.207,253.8025,249.5588,240.244,269.7904,249.7324,249.6456,,,,, ,, , ,24.7705,,24.7639,,0.8441,80.9752,,,,2.0247E+03,,1.0815E+01,,15.4869,15.4875,0.0437,317.091,97.728,96.931,,,,,,,,,,,,
CalCOFI,2101RL,005,,2101_005d,16-Jan-2021 19:32:11,16-Jan-2021 11:32:11,32.84742,-117.52722,093.3 030.0,093.3,030.0,16.000,16.114,,15.4883,,15.4888,,15.4886,33.5803,,33.5861,33.5717,,33.5737,33.5799,5.5543,,5.8130,5.7174,5.5100,,5.8502,5.7221,5.7198,242.057,253.6455,249.4051,240.131,269.6236,249.6148,249.5100,,,,, ,, , ,24.7709,,24.7642,,0.8448,80.9617,,,,2.0240E+03,,9.3343E+00,,15.4858,15.4863,0.0469,317.084,97.665,96.883,,,,,,,,,,,,
CalCOFI,2101RL,005,,2101_005d,16-Jan-2021 19:32:13,16-Jan-2021 11:32:13,32.84742,-117.52722,093.3 030.0,093.3,030.0,17.000,17.121,,15.4869,,15.4874,,15.4872,33.5801,,33.5859,33.5717,,33.5737,33.5798,5.5532,,5.8119,5.7163,5.5078,,5.8478,5.7198,5.7181,242.012,253.5984,249.3590,240.033,269.5735,249.5128,249.4359,,,,, ,, , ,24.7711,,24.7646,,0.8444,80.9702,,,,2.0229E+03,,8.6138E+00,,15.4843,15.4847,0.0501,317.096,97.644,96.841,,,,,,,,,,,,
CalCOFI,2101RL,005,,2101_005d,16-Jan-2021 19:32:16,16-Jan-2021 11:32:16,32.84742,-117.52722,093.3 030.0,093.3,030.0,18.000,18.128,,15.4851,,15.4855,,15.4853,33.5801,,33.5859,33.5718,,33.5738,33.5799,5.5571,,5.8160,5.7203,5.5002,,5.8398,5.7119,5.7161,242.179,253.7732,249.5301,239.703,269.7592,249.1692,249.3497,,,,, ,, , ,24.7716,,24.7650,,0.8394,81.0708,,,,2.0229E+03,,7.9572E+00,,15.4823,15.4828,0.0533,317.082,97.709,96.705,,,,,,,,,,,,
CalCOFI,2101RL,005,,2101_005d,16-Jan-2021 19:32:17,16-Jan-2021 11:32:17,32.84741,-117.52720,093.3 030.0,093.3,030.0,19.000,19.136,,15.4842,,15.4846,,15.4844,33.5802,,33.5860,33.5719,,33.5739,33.5800,5.5617,,5.8208,5.7250,5.5044,,5.8442,5.7163,5.7207,242.380,253.9836,249.7360,239.887,269.9828,249.3608,249.5484,,,,, ,, , ,24.7719,,24.7653,,0.8416,81.0262,,,,2.0244E+03,,7.2468E+00,,15.4813,15.4817,0.0565,317.087,97.788,96.777,,,,,,,,,,,,
CalCOFI,2101RL,005,,2101_005d,16-Jan-2021 19:32:19,16-Jan-2021 11:32:19,32.84740,-117.52720,093.3 030.0,093.3,030.0,20.000,20.143,,15.4836,,15.4843,,15.4840,33.5801,,33.5859,33.5719,,33.5739,33.5799,5.5436,,5.8018,5.7064,5.4974,,5.8368,5.7090,5.7077,241.593,253.1598,248.9298,239.582,269.1076,249.0433,248.9866,,,,, ,, , ,24.7719,,24.7655,,0.8414,81.0309,,,,2.0264E+03,,6.9106E+00,,15.4806,15.4812,0.0597,317.113,97.469,96.654,20,,33.5708,5.670,247.30,0.663,0.249,,,,,
CalCOFI,2101RL,005,,2101_005d,16-Jan-2021 19:32:21,16-Jan-2021 11:32:21,32.84740,-117.52720,093.3 030.0,093.3,030.0,21.000,21.150,,15.4821,,15.4826,,15.4824,33.5800,,33.5858,33.5717,,33.5737,33.5798,5.5479,,5.8063,5.7108,5.4925,,5.8316,5.7039,5.7074,241.779,253.3545,249.1203,239.368,269.3144,248.8205,248.9704,,,,, ,, , ,24.7723,,24.7658,,0.8433,80.9910,,,,2.0257E+03,,6.1379E+00,,15.4789,15.4793,0.0629,317.112,97.541,96.564,,,,,,,,,,,,
CalCOFI,2101RL,005,,2101_005d,16-Jan-2021 19:32:24,16-Jan-2021 11:32:24,32.84740,-117.52720,093.3 030.0,093.3,030.0,22.000,22.157,,15.4803,,15.4806,,15.4805,33.5800,,33.5858,33.5716,,33.5736,33.5797,5.5279,,5.7854,5.6904,5.4740,,5.8119,5.6846,5.6875,240.910,252.4448,248.2302,238.559,268.3481,247.9782,248.1042,,,,, ,, , ,24.7726,,24.7661,,0.8428,81.0016,,,,2.0231E+03,,5.7176E+00,,15.4769,15.4773,0.0660,317.106,97.187,96.234,,,,,,,,,,,,
CalCOFI,2101RL,005,,2101_005d,16-Jan-2021 19:32:26,16-Jan-2021 11:32:26,32.84740,-117.52720,093.3 030.0,093.3,030.0,23.000,23.164,,15.4756,,15.4758,,15.4757,33.5798,,33.5856,33.5714,,33.5734,33.5795,5.5178,,5.7748,5.6800,5.4788,,5.8170,5.6896,5.6848,240.466,251.9800,247.7754,238.770,267.8544,248.1979,247.9867,,,,, ,, , ,24.7736,,24.7671,,0.8404,81.0501,,,,2.0229E+03,,5.2483E+00,,15.4721,15.4723,0.0692,317.047,96.999,96.310,,,,,,,,,,,,
CalCOFI,2101RL,005,,2101_005d,16-Jan-2021 19:32:32,16-Jan-2021 11:32:32,32.84740,-117.52720,093.3 030.0,093.3,030.0,24.000,24.171,,15.4448,,15.4489,,15.4469,33.5775,,33.5833,33.5690,,33.5710,33.5772,5.5034,,5.7598,5.6653,5.4633,,5.8006,5.6735,5.6694,239.838,251.3226,247.1321,238.094,267.1560,247.4942,247.3132,,,,, ,, , ,24.7786,,24.7712,,0.8379,81.1011,,,,2.0241E+03,,4.8704E+00,,15.4411,15.4452,0.0727,316.596,96.686,95.985,,,,,,,,,,,,
CalCOFI,2101RL,005,,2101_005d,16-Jan-2021 19:32:41,16-Jan-2021 11:32:41,32.84742,-117.52717,093.3 030.0,093.3,030.0,25.000,25.179,,15.3111,,15.3182,,15.3147,33.5614,,33.5672,33.5537,,33.5557,33.5615,5.4284,,5.6813,5.5885,5.4018,,5.7353,5.6095,5.5990,236.566,247.8975,243.7804,235.408,263.5175,244.6978,244.2391,,,,, ,, , ,24.7958,,24.7883,,0.8579,80.6971,,,,2.0243E+03,,4.4877E+00,,15.3073,15.3144,0.0762,314.987,95.107,94.650,,,,,,,,,,,,
CalCOFI,2101RL,005,,2101_005d,16-Jan-2021 19:32:48,16-Jan-2021 11:32:48,32.84742,-117.52714,093.3 030.0,093.3,030.0,26.000,26.186,,15.2087,,15.2101,,15.2094,33.5550,,33.5608,33.5468,,33.5488,33.5548,5.3917,,5.6429,5.5509,5.3618,,5.6928,5.5679,5.5594,234.962,246.2184,242.1373,233.660,261.7338,242.8781,242.5077,,,,, ,, , ,24.8134,,24.8068,,0.8548,80.7590,,,,2.0235E+03,,4.1097E+00,,15.2047,15.2062,0.0794,313.343,94.268,93.743,,,,,,,,,,,,
CalCOFI,2101RL,005,,2101_005d,16-Jan-2021 19:32:54,16-Jan-2021 11:32:54,32.84745,-117.52709,093.3 030.0,093.3,030.0,27.000,27.193,,15.1536,,15.1546,,15.1541,33.5491,,33.5549,33.5409,,33.5429,33.5489,5.3308,,5.5791,5.4886,5.3055,,5.6330,5.5093,5.4990,232.309,243.4413,239.4197,231.208,258.7837,240.3254,239.8726,,,,, ,, , ,24.8210,,24.8144,,0.8498,80.8603,,,,2.0242E+03,,3.7571E+00,,15.1495,15.1505,0.0826,312.647,93.099,92.654,,,,,,,,,,,,
CalCOFI,2101RL,005,,2101_005d,16-Jan-2021 19:32:59,16-Jan-2021 11:32:59,32.84746,-117.52706,093.3 030.0,093.3,030.0,28.000,28.200,,15.0819,,15.0824,,15.0822,33.5446,,33.5504,33.5362,,33.5382,33.5443,5.3229,,5.5708,5.4805,5.2881,,5.6145,5.4912,5.4859,231.961,243.0770,239.0632,230.444,258.3967,239.5300,239.2966,,,,, ,, , ,24.8331,,24.8265,,0.8294,81.2732,,,,2.0243E+03,,3.4690E+00,,15.0777,15.0782,0.0857,311.514,92.825,92.214,,,,,,,,,,,,
CalCOFI,2101RL,005,,2101_005d,16-Jan-2021 19:33:04,16-Jan-2021 11:33:04,32.84748,-117.52704,093.3 030.0,093.3,030.0,29.000,29.208,,15.0111,,15.0133,,15.0122,33.5553,,33.5611,33.5469,,33.5489,33.5550,5.2733,,5.5189,5.4297,5.2559,,5.5803,5.4577,5.4437,229.794,240.8086,236.8434,229.039,255.9869,238.0673,237.4554,,,,, ,, , ,24.8568,,24.8499,,0.8060,81.7510,,,,2.0240E+03,,3.1702E+00,,15.0068,15.0089,0.0889,309.293,91.837,91.534,,,,,,,,,,,,
CalCOFI,2101RL,005,,2101_005d,16-Jan-2021 19:33:08,16-Jan-2021 11:33:08,32.84750,-117.52704,093.3 030.0,093.3,030.0,30.000,30.215,,14.8729,,14.8810,,14.8770,33.5577,,33.5635,33.5513,,33.5533,33.5584,5.2321,,5.4758,5.3876,5.2019,,5.5229,5.4015,5.3946,227.990,238.9201,234.9955,226.676,253.9809,235.6073,235.3014,,,,, ,, , ,24.8886,,24.8819,,0.7761,82.3644,,,,2.0242E+03,,2.8839E+00,,14.8685,14.8765,0.0919,306.283,90.869,90.356,,,,,,,,,,,,
CalCOFI,2101RL,005,,2101_005d,16-Jan-2021 19:33:12,16-Jan-2021 11:33:12,32.84750,-117.52704,093.3 030.0,093.3,030.0,31.000,31.222,,14.7875,,14.7885,,14.7880,33.5560,,33.5618,33.5479,,33.5499,33.5559,5.2108,,5.4535,5.3657,5.1813,,5.5011,5.3801,5.3729,227.058,237.9445,234.0408,225.777,252.9445,234.6714,234.3561,,,,, ,, , ,24.9057,,24.8993,,0.7750,82.3861,,,,2.0236E+03,,2.7102E+00,,14.7829,14.7839,0.0950,304.682,90.344,89.831,,,,,,,,,,,,
CalCOFI,2101RL,005,,2101_005d,16-Jan-2021 19:33:15,16-Jan-2021 11:33:15,32.84752,-117.52702,093.3 030.0,093.3,030.0,32.000,32.229,,14.7565,,14.7580,,14.7573,33.5555,,33.5613,33.5472,,33.5492,33.5553,5.2077,,5.4503,5.3626,5.1681,,5.4870,5.3664,5.3645,226.925,237.8053,233.9045,225.200,252.7966,234.0707,233.9876,,,,, ,, , ,24.9121,,24.9053,,0.7705,82.4786,,,,2.0253E+03,,2.5206E+00,,14.7517,14.7533,0.0981,304.105,90.235,89.547,,,,,,,,,,,,
CalCOFI,2101RL,005,,2101_005d,16-Jan-2021 19:33:18,16-Jan-2021 11:33:18,32.84752,-117.52700,093.3 030.0,093.3,030.0,33.000,33.237,,14.7168,,14.7178,,14.7173,33.5554,,33.5612,33.5472,,33.5492,33.5552,5.1989,,5.4411,5.3536,5.1647,,5.4834,5.3628,5.3582,226.538,237.4002,233.5081,225.049,252.3662,233.9135,233.7108,,,,, ,, , ,24.9205,,24.9140,,0.7652,82.5884,,,,2.0232E+03,,2.3398E+00,,14.7119,14.7129,0.1012,303.331,90.011,89.415,,,,,,,,,,,,
CalCOFI,2101RL,005,,2101_005d,16-Jan-2021 19:33:21,16-Jan-2021 11:33:21,32.84754,-117.52698,093.3 030.0,093.3,030.0,34.000,34.244,,14.6908,,14.6918,,14.6913,33.5544,,33.5602,33.5464,,33.5484,33.5543,5.2036,,5.4460,5.3584,5.1599,,5.4783,5.3578,5.3581,226.742,237.6137,233.7171,224.840,252.5931,233.6959,233.7065,,,,, ,, , ,24.9254,,24.9190,,0.7712,82.4646,,,,2.0241E+03,,2.1975E+00,,14.6858,14.6867,0.1042,302.898,90.045,89.286,,,,,,,,,,,,
CalCOFI,2101RL,005,,2101_005d,16-Jan-2021 19:33:25,16-Jan-2021 11:33:25,32.84754,-117.52696,093.3 030.0,093.3,030.0,35.000,35.251,,14.6863,,14.6870,,14.6867,33.5542,,33.5600,33.5460,,33.5480,33.5540,5.1979,,5.4400,5.3525,5.1539,,5.4720,5.3516,5.3521,226.492,237.3520,233.4610,224.575,252.3151,233.4200,233.4405,,,,, ,, , ,24.9262,,24.9197,,0.7730,82.4274,,,,2.0228E+03,,2.0642E+00,,14.6811,14.6819,0.1073,302.845,89.937,89.172,,,,,,,,,,,,
CalCOFI,2101RL,005,,2101_005d,16-Jan-2021 19:33:27,16-Jan-2021 11:33:27,32.84756,-117.52696,093.3 030.0,093.3,030.0,36.000,36.258,,14.6848,,14.6842,,14.6845,33.5542,,33.5600,33.5458,,33.5478,33.5539,5.1900,,5.4318,5.3445,5.1580,,5.4763,5.3558,5.3502,226.149,236.9930,233.1096,224.756,251.9336,233.6084,233.3590,,,,, ,, , ,24.9265,,24.9202,,0.7684,82.5230,,,,2.0229E+03,,1.9504E+00,,14.6795,14.6789,0.1103,302.846,89.798,89.239,,,,,,,,,,,,
CalCOFI,2101RL,005,,2101_005d,16-Jan-2021 19:33:30,16-Jan-2021 11:33:30,32.84756,-117.52695,093.3 030.0,093.3,030.0,37.000,37.266,,14.6320,,14.6313,,14.6317,33.5515,,33.5573,33.5442,,33.5462,33.5518,5.2098,,5.4525,5.3647,5.1708,,5.4899,5.3692,5.3670,227.011,237.8953,233.9926,225.312,252.8922,234.1873,234.0900,,,,, ,, , ,24.9358,,24.9303,,0.7638,82.6173,,,,2.0227E+03,,1.8358E+00,,14.6266,14.6258,0.1134,301.989,90.044,89.365,,,,,,,,,,,,
CalCOFI,2101RL,005,,2101_005d,16-Jan-2021 19:33:34,16-Jan-2021 11:33:34,32.84756,-117.52694,093.3 030.0,093.3,030.0,38.000,38.273,,14.5688,,14.5697,,14.5693,33.5471,,33.5529,33.5384,,33.5404,33.5467,5.2549,,5.4997,5.4109,5.2053,,5.5265,5.4051,5.4080,228.971,239.9470,236.0004,226.814,255.0717,235.7509,235.8757,,,,, ,, , ,24.9459,,24.9390,,0.7666,82.5605,,,,2.0200E+03,,1.7365E+00,,14.5632,14.5642,0.1164,301.053,90.705,89.847,,,,,,,,,,,,
CalCOFI,2101RL,005,,2101_005d,16-Jan-2021 19:33:35,16-Jan-2021 11:33:35,32.84756,-117.52694,093.3 030.0,093.3,030.0,39.000,39.280,,14.5340,,14.5342,,14.5341,33.5451,,33.5509,33.5369,,33.5389,33.5449,5.2521,,5.4967,5.4080,5.2020,,5.5230,5.4016,5.4048,228.851,239.8214,235.8774,226.665,254.9383,235.5958,235.7366,,,,, ,, , ,24.9518,,24.9455,,0.7613,82.6684,,,,2.0224E+03,,1.6591E+00,,14.5283,14.5285,0.1194,300.519,90.594,89.724,,,,,,,,,,,,
CalCOFI,2101RL,005,,2101_005d,16-Jan-2021 19:33:38,16-Jan-2021 11:33:38,32.84756,-117.52694,093.3 030.0,093.3,030.0,40.000,40.287,,14.4889,,14.4927,,14.4908,33.5441,,33.5499,33.5361,,33.5381,33.5440,5.2394,,5.4835,5.3950,5.1875,,5.5076,5.3865,5.3908,228.292,239.2363,235.3048,226.033,254.3167,234.9379,235.1214,,,,, ,, , ,24.9607,,24.9537,,0.7595,82.7066,,,,2.0233E+03,,1.5888E+00,,14.4830,14.4868,0.1224,299.706,90.291,89.399,,,,,,,,,,,,
CalCOFI,2101RL,005,,2101_005d,16-Jan-2021 19:33:40,16-Jan-2021 11:33:40,32.84758,-117.52692,093.3 030.0,093.3,030.0,41.000,41.295,,14.4426,,14.4432,,14.4429,33.5457,,33.5515,33.5373,,33.5393,33.5454,5.2297,,5.4733,5.3851,5.1868,,5.5069,5.3858,5.3855,227.868,238.7924,234.8705,226.000,253.8452,234.9035,234.8870,,,,, ,, , ,24.9717,,24.9652,,0.7609,82.6784,,,,2.0225E+03,,1.5167E+00,,14.4367,14.4372,0.1255,298.681,90.041,89.299,,,,,,,,,,,,
CalCOFI,2101RL,005,,2101_005d,16-Jan-2021 19:33:43,16-Jan-2021 11:33:43,32.84757,-117.52692,093.3 030.0,093.3,030.0,42.000,42.302,,14.3891,,14.3924,,14.3908,33.5515,,33.5573,33.5441,,33.5461,33.5517,5.1280,,5.3669,5.2810,5.1296,,5.4461,5.3263,5.3037,223.433,234.1499,230.3275,223.503,248.9134,232.3040,231.3158,,,,, ,, , ,24.9876,,24.9812,,0.7561,82.7773,,,,2.0234E+03,,1.4562E+00,,14.3830,14.3863,0.1285,297.194,88.199,88.227,,,,,,,,,,,,
CalCOFI,2101RL,005,,2101_005d,16-Jan-2021 19:33:45,16-Jan-2021 11:33:45,32.84756,-117.52692,093.3 030.0,093.3,030.0,43.000,43.309,,14.2608,,14.2671,,14.2640,33.5498,,33.5556,33.5415,,33.5435,33.5496,4.9025,,5.1309,5.0501,4.9224,,5.2261,5.1107,5.0804,213.604,223.8609,220.2591,214.472,237.9834,222.9021,221.5806,,,,, ,, , ,25.0133,,25.0056,,0.7510,82.8829,,,,2.0232E+03,,1.3911E+00,,14.2546,14.2609,0.1314,294.773,84.102,84.450,,,,,,,,,,,,
CalCOFI,2101RL,005,,2101_005d,16-Jan-2021 19:33:48,16-Jan-2021 11:33:48,32.84756,-117.52692,093.3 030.0,093.3,030.0,44.000,44.317,,13.9981,,13.9999,,13.9990,33.5465,,33.5523,33.5327,,33.5347,33.5435,4.8102,,5.0343,4.9556,4.8167,,5.1138,5.0007,4.9782,209.572,219.6402,216.1289,209.857,233.4998,218.0976,217.1133,,,,, ,, , ,25.0657,,25.0546,,0.7442,83.0232,,,,2.0229E+03,,1.3372E+00,,13.9918,13.9936,0.1344,289.792,82.079,82.186,,,,,,,,,,,,
CalCOFI,2101RL,005,,2101_005d,16-Jan-2021 19:33:50,16-Jan-2021 11:33:50,32.84756,-117.52692,093.3 030.0,093.3,030.0,45.000,45.324,,13.8890,,13.8926,,13.8908,33.5401,,33.5459,33.5323,,33.5343,33.5401,4.7517,,4.9730,4.8958,4.7366,,5.0287,4.9174,4.9066,207.017,216.9656,213.5116,206.361,230.6586,214.4581,213.9849,,,,, ,, , ,25.0833,,25.0766,,0.7502,82.8992,,,,2.0245E+03,,1.2867E+00,,13.8826,13.8862,0.1373,288.131,80.897,80.642,,,,,,,,,,,,
CalCOFI,2101RL,005,,2101_005d,16-Jan-2021 19:33:52,16-Jan-2021 11:33:52,32.84756,-117.52692,093.3 030.0,093.3,030.0,46.000,46.331,,13.8641,,13.8634,,13.8638,33.5488,,33.5546,33.5402,,33.5422,33.5484,4.6939,,4.9125,4.8366,4.6863,,4.9753,4.8651,4.8509,204.499,214.3298,210.9323,204.166,227.8585,212.1729,211.5526,,,,, ,, , ,25.0953,,25.0887,,0.7427,83.0547,,,,2.0240E+03,,1.2530E+00,,13.8576,13.8569,0.1402,287.024,79.878,79.742,,,,,,,,,,,,
CalCOFI,2101RL,005,,2101_005d,16-Jan-2021 19:33:53,16-Jan-2021 11:33:53,32.84756,-117.52692,093.3 030.0,093.3,030.0,47.000,47.339,,13.8382,,13.8357,,13.8370,33.5527,,33.5585,33.5451,,33.5471,33.5528,4.6700,,4.8875,4.8121,4.6531,,4.9401,4.8305,4.8213,203.455,213.2369,209.8629,202.721,226.6976,210.6686,210.2658,,,,, ,, , ,25.1036,,25.0983,,0.7423,83.0634,,,,2.0243E+03,,1.2235E+00,,13.8315,13.8290,0.1431,286.253,79.431,79.136,,,,,,,,,,,,
CalCOFI,2101RL,005,,2101_005d,16-Jan-2021 19:33:55,16-Jan-2021 11:33:55,32.84756,-117.52691,093.3 030.0,093.3,030.0,48.000,48.346,,13.7592,,13.7626,,13.7609,33.5607,,33.5665,33.5512,,33.5532,33.5599,4.6467,,4.8631,4.7883,4.6353,,4.9212,4.8120,4.8002,202.433,212.1671,208.8160,201.939,225.5611,209.8545,209.3353,,,,, ,, , ,25.1261,,25.1180,,0.7439,83.0291,,,,2.0243E+03,,1.1773E+00,,13.7524,13.7558,0.1460,284.143,78.911,78.718,,,,,,,,,,,,
CalCOFI,2101RL,005,,2101_005d,16-Jan-2021 19:33:58,16-Jan-2021 11:33:58,32.84756,-117.52690,093.3 030.0,093.3,030.0,49.000,49.353,,13.7346,,13.7365,,13.7356,33.5587,,33.5645,33.5503,,33.5523,33.5584,4.5573,,4.7696,4.6967,4.5598,,4.8410,4.7335,4.7151,198.541,208.0929,204.8292,198.648,221.2331,206.4283,205.6288,,,,, ,, , ,25.1296,,25.1227,,0.7423,83.0616,,,,2.0232E+03,,1.1236E+00,,13.7277,13.7296,0.1488,283.833,77.354,77.394,,,,,,,,,,,,
CalCOFI,2101RL,005,,2101_005d,16-Jan-2021 19:34:00,16-Jan-2021 11:34:00,32.84756,-117.52692,093.3 030.0,093.3,030.0,50.000,50.361,,13.6962,,13.6927,,13.6945,33.5580,,33.5638,33.5500,,33.5520,33.5579,4.4492,,4.6564,4.5861,4.4596,,4.7345,4.6292,4.6077,193.828,203.1594,200.0014,194.282,215.9922,201.8830,200.9422,,,,, ,, , ,25.1370,,25.1315,,0.7407,83.0959,,,,2.0231E+03,,1.0794E+00,,13.6891,13.6857,0.1517,283.157,75.459,75.626,50,,33.5553,4.428,193.15,0.392,0.407,,,,,
CalCOFI,2101RL,005,,2101_005d,16-Jan-2021 19:34:01,16-Jan-2021 11:34:01,32.84756,-117.52692,093.3 030.0,093.3,030.0,51.000,51.368,,13.5866,,13.5853,,13.5860,33.5558,,33.5616,33.5482,,33.5502,33.5559,4.4289,,4.6352,4.5653,4.4217,,4.6943,4.5898,4.5776,192.942,202.2319,199.0938,192.627,215.0069,200.1601,199.6270,,,,, ,, , ,25.1576,,25.1521,,0.7390,83.1312,,,,2.0249E+03,,1.0532E+00,,13.5795,13.5782,0.1545,281.208,74.946,74.818,,,,,,,,,,,,
CalCOFI,2101RL,005,,2101_005d,16-Jan-2021 19:34:03,16-Jan-2021 11:34:03,32.84756,-117.52690,093.3 030.0,093.3,030.0,52.000,52.375,,13.5052,,13.5052,,13.5052,33.5554,,33.5612,33.5476,,33.5496,33.5554,4.4169,,4.6226,4.5530,4.4017,,4.6730,4.5690,4.5610,192.414,201.6792,198.5529,191.755,214.4198,199.2523,198.9026,,,,, ,, , ,25.1739,,25.1679,,0.7366,83.1802,,,,2.0258E+03,,1.0242E+00,,13.4980,13.4979,0.1573,279.679,74.618,74.359,,,,,,,,,,,,
CalCOFI,2101RL,005,,2101_005d,16-Jan-2021 19:34:05,16-Jan-2021 11:34:05,32.84756,-117.52690,093.3 030.0,093.3,030.0,53.000,53.383,,13.4578,,13.4587,,13.4583,33.5582,,33.5640,33.5502,,33.5522,33.5581,4.3205,,4.5217,4.4543,4.3374,,4.6048,4.5021,4.4782,188.214,197.2826,194.2507,188.950,209.7493,196.3321,195.2914,,,,, ,, , ,25.1857,,25.1794,,0.7365,83.1846,,,,2.0251E+03,,9.8500E-01,,13.4504,13.4514,0.1601,278.579,72.921,73.203,,,,,,,,,,,,
CalCOFI,2101RL,005,,2101_005d,16-Jan-2021 19:34:07,16-Jan-2021 11:34:07,32.84756,-117.52690,093.3 030.0,093.3,030.0,54.000,54.390,,13.3778,,13.3778,,13.3778,33.5543,,33.5601,33.5469,,33.5489,33.5545,4.2358,,4.4331,4.3676,4.2471,,4.5088,4.4081,4.3879,184.522,193.4178,190.4687,185.015,205.6438,192.2355,191.3521,,,,, ,, , ,25.1990,,25.1932,,0.7378,83.1560,,,,2.0247E+03,,9.6012E-01,,13.3703,13.3703,0.1629,277.343,71.373,71.560,,,,,,,,,,,,